Wind_Speed
8 9 8 8 8 9 10 11 12 13 13 12 11 6 1 1 1 1 8 9 2 1 2 0 1 1 1 1 0 0 0 1 0 1 2 1 0 0 0 1 1 1 1 1 2 2 2 2 1 1 1 0 2 2 1 2 2 1 1 1 1 1 1 2 5 4 1 2 2 2 1 1 1 1 1 1 0 0 2 3 1 2 4 3 4 6 3
8 8 8 8 8 9 10 11 12 12 13 13 11 4 1 1 1 1 9 9 0 1 1 0 1 1 0 1 1 0 1 1 0 1 1 1 1 1 0 0 0 0 0 1 1 1 1 1 1 0 1 0 3 3 2 2 1 0 1 1 1 2 1 0 4 5 1 1 1 1 1 1 2 1 2 1 2 3 1 1 1 3 6 7 8 8 2
8 8 9 9 8 9 9 10 11 11 11 13 10 2 2 1 0 1 7 9 5 1 0 1 0 0 1 1 1 0 0 1 1 1 0 0 1 1 1 0 0 1 1 1 1 1 1 1 1 1 1 0 3 4 3 2 1 1 2 3 2 2 1 1 4 5 4 4 4 2 2 1 1 1 2 2 2 3 2 2 3 4 4 6 8 9 6
8 9 10 9 9 9 9 9 10 9 9 11 8 4 1 0 1 1 3 6 6 2 1 1 1 1 0 1 1 1 0 1 0 1 1 1 0 0 0 1 1 1 1 2 2 2 1 0 1 1 2 1 2 3 3 1 1 2 4 3 1 1 1 3 6 6 6 8 5 2 2 5 6 5 3 3 3 2 2 3 4 4 3 5 8 10 14
10 10 10 10 9 9 9 8 8 7 6 8 7 4 3 1 1 1 1 1 2 2 1 2 1 0 1 1 0 1 2 1 0 1 1 1 0 1 0 1 2 1 1 2 2 1 1 1 1 1 1 1 1 1 1 0 2 4 3 2 0 1 3 2 4 7 9 10 7 1 1 7 11 10 6 2 3 4 4 7 6 3 4 6 5 7 13
11 11 10 10 9 9 8 7 7 5 4 6 5 2 2 1 1 0 1 0 1 1 2 2 1 1 1 0 0 1 2 2 1 1 0 0 1 1 1 2 3 3 1 1 1 1 1 2 2 1 0 1 1 1 0 1 3 3 1 0 1 2 3 1 1 5 8 9 10 6 4 7 8 8 9 6 3 5 7 9 10 5 6 10 11 13 16
11 11 10 9 8 8 7 7 7 5 3 5 4 2 1 1 1 0 1 0 1 1 1 1 1 1 1 0 1 1 1 1 1 1 1 1 1 1 2 2 2 2 2 1 1 1 1 2 2 1 1 1 1 1 1 1 1 3 0 1 1 2 2 2 1 5 8 6 6 4 2 3 4 5 7 7 5 6 8 9 11 8 10 14 17 20 19
10 10 10 9 9 8 8 7 6 4 3 3 3 2 1 0 1 1 1 2 2 1 1 0 0 1 0 0 0 1 2 2 1 1 2 1 1 2 2 1 1 1 2 3 4 2 1 2 3 2 2 2 2 1 1 2 1 1 1 2 1 1 1 2 1 5 5 0 1 0 2 3 4 3 3 4 4 4 4 5 7 6 10 13 15 17 15
10 10 10 9 9 8 7 7 5 3 2 1 2 2 1 1 2 2 2 2 1 1 0 0 1 0 0 1 1 1 2 2 1 1 2 1 1 3 3 1 2 1 2 4 5 2 1 3 3 2 2 2 0 0 1 1 2 1 1 1 1 1 1 1 2 5 4 2 1 4 1 2 2 3 9 9 6 3 1 4 5 6 9 13 12 11 9
10 10 9 9 9 8 8 7 5 3 2 1 2 2 3 3 2 2 1 1 0 0 1 0 1 0 0 0 1 1 1 1 1 1 1 0 1 1 1 1 1 1 2 3 3 2 1 2 2 1 1 1 2 1 2 2 1 2 2 0 1 0 2 0 2 4 3 1 6 8 3 2 3 5 9 9 8 6 5 6 8 9 10 10 9 8 9
9 9 9 9 9 8 8 7 6 4 4 4 2 3 5 4 2 2 1 1 0 1 0 1 0 0 1 1 1 1 0 1 1 1 1 1 1 1 1 2 1 2 1 0 2 2 2 1 1 2 2 4 4 3 4 5 4 1 2 1 1 0 1 0 0 3 4 5 9 10 5 1 2 6 8 10 9 8 9 9 12 14 11 7 8 9 12
9 9 9 9 9 8 7 7 6 4 4 6 4 4 5 5 3 2 1 0 0 0 1 1 0 0 0 0 1 2 2 1 1 1 2 1 1 0 1 1 0 1 1 2 1 2 2 2 2 4 5 6 6 6 7 7 6 3 1 2 2 2 1 0 1 2 4 5 7 6 2 2 2 4 8 13 8 7 11 11 13 13 8 5 9 12 15
9 9 9 9 9 8 7 6 6 4 4 7 6 4 5 5 3 2 2 0 1 1 1 1 0 0 1 1 2 2 1 1 0 0 2 1 0 1 1 1 0 1 1 2 3 3 2 1 1 2 3 3 4 6 7 7 6 4 3 2 1 2 2 1 1 1 3 2 3 4 2 4 3 1 9 14 9 9 13 11 9 7 3 5 11 15 16
9 9 9 9 8 7 6 6 4 3 3 7 8 5 5 5 2 2 2 0 1 1 1 0 1 1 1 2 2 0 0 1 0 1 1 0 1 2 0 0 0 2 1 2 2 1 2 0 1 0 1 1 1 2 3 4 5 5 4 3 1 2 2 1 1 1 1 1 2 3 3 2 5 5 9 11 9 10 11 10 9 4 2 6 14 17 18
8 8 8 8 7 6 5 4 3 1 2 6 8 7 5 4 2 1 2 1 0 1 1 1 1 1 1 2 2 0 1 1 0 0 1 1 2 2 1 0 1 2 2 1 0 0 1 1 1 2 1 0 1 1 1 2 2 4 4 2 1 1 1 1 2 0 1 2 3 3 4 1 4 8 11 9 9 10 8 8 6 1 3 11 18 19 22
8 8 8 7 6 6 4 4 4 3 3 6 8 7 5 4 3 2 3 2 1 0 0 1 0 1 1 1 1 1 1 0 0 1 1 1 1 0 1 1 1 2 1 0 1 1 1 1 1 1 2 1 1 1 1 1 1 2 1 1 3 3 2 1 1 1 1 1 2 3 2 1 5 10 13 10 8 7 5 5 3 3 11 19 20 21 24
8 8 7 7 7 6 6 6 6 6 6 6 6 5 4 5 5 2 2 2 1 1 1 1 1 1 1 0 0 1 0 0 0 1 1 1 0 1 0 1 2 2 1 1 1 1 2 1 1 1 1 0 0 2 1 1 2 1 1 2 3 3 2 1 1 1 1 0 2 3 2 2 7 12 14 12 7 3 3 6 5 10 19 20 19 23 25
8 8 9 9 9 10 9 9 9 9 8 7 6 5 4 5 5 3 2 2 1 1 1 1 1 0 0 1 0 0 0 0 1 0 0 0 0 0 0 1 1 1 1 1 1 1 1 0 0 1 1 1 0 2 1 2 3 2 1 1 2 2 1 1 1 1 1 1 2 4 2 2 9 15 16 15 8 2 3 9 10 16 22 21 20 23 22
9 10 11 11 11 11 11 10 9 8 7 6 4 3 3 3 5 4 2 2 1 1 1 1 2 2 2 1 1 1 0 0 1 1 1 1 1 1 0 1 1 0 0 1 1 1 0 1 1 0 1 0 0 1 1 2 2 3 1 1 2 2 1 1 1 1 1 1 2 5 2 2 10 16 13 12 10 5 7 12 14 17 22 21 21 22 21
10 10 11 11 11 12 11 10 9 7 5 4 3 2 2 2 4 5 2 2 2 2 2 2 2 2 3 2 1 1 0 0 0 1 1 1 1 0 0 0 0 0 0 0 1 0 0 0 0 1 1 1 0 0 1 2 2 4 3 2 3 3 2 2 3 2 1 1 2 3 2 4 14 17 11 8 10 9 10 14 16 18 20 20 20 19 18
10 9 9 10 10 11 11 11 9 7 5 4 3 2 3 3 5 5 2 2 4 3 1 1 2 3 3 3 3 2 2 2 2 1 0 1 0 0 1 1 0 0 0 0 0 0 1 0 0 0 0 1 1 1 0 2 3 4 3 2 2 3 2 3 2 2 2 3 3 4 6 9 14 14 9 9 11 11 12 14 16 17 18 17 16 16 18
8 9 9 9 9 10 10 10 9 8 6 4 3 3 5 7 8 5 2 6 10 8 5 5 6 6 6 6 4 3 3 3 2 1 1 1 0 0 1 1 0 0 0 0 1 1 1 1 0 0 0 0 2 2 1 1 2 3 4 3 3 5 6 4 2 1 3 6 7 8 9 9 11 11 10 12 15 15 16 16 16 15 15 14 14 17 21
8 8 9 9 9 9 9 9 8 8 7 5 4 5 7 10 10 7 8 13 15 10 6 6 6 6 6 6 5 5 4 3 2 2 2 1 0 1 0 0 0 0 0 1 2 1 1 1 0 1 1 1 2 2 2 4 3 2 4 5 3 5 8 5 3 4 7 7 7 8 10 12 15 13 10 14 16 17 18 17 15 13 14 14 15 17 20
7 8 8 9 10 11 11 10 9 7 6 6 6 7 7 10 10 8 7 8 7 4 3 3 2 2 3 3 3 4 5 4 2 1 2 2 1 0 1 1 1 1 0 1 1 0 1 1 1 1 1 0 1 2 3 4 4 1 3 5 3 4 8 7 4 7 9 5 5 10 14 16 17 12 11 16 19 18 17 15 14 14 17 17 18 20 21
7 7 7 9 10 11 11 10 9 8 6 6 6 6 6 8 7 3 3 3 3 3 2 2 1 1 1 2 2 4 6 4 3 1 1 1 1 0 1 2 1 0 1 1 1 1 2 1 0 1 2 0 1 2 2 3 4 3 4 5 5 5 7 8 7 8 8 8 11 16 17 14 11 9 12 18 20 19 19 17 17 19 21 23 25 25 21
6 6 6 7 7 9 10 10 9 8 6 6 6 5 4 4 2 0 1 2 3 2 2 2 1 2 1 2 2 4 5 4 3 2 2 1 0 0 1 1 0 1 1 1 1 0 1 1 1 2 2 1 1 3 4 5 5 5 6 6 5 6 6 8 10 9 7 9 13 18 15 9 6 10 16 19 19 20 20 20 20 21 22 23 25 26 23
5 5 5 4 5 8 10 10 10 8 5 5 6 5 4 3 1 1 0 1 1 1 2 2 1 1 1 3 5 6 6 4 3 2 2 2 1 1 0 0 0 1 1 1 1 1 1 2 2 2 1 1 1 3 3 4 5 5 6 7 7 6 7 9 9 8 7 10 14 16 12 7 9 16 21 21 21 21 21 20 19 19 22 23 22 24 28
5 4 3 2 5 7 8 9 10 8 4 3 4 6 7 6 4 3 2 0 2 2 2 2 2 2 3 2 6 8 6 4 3 3 3 4 3 3 2 1 0 1 1 1 1 1 2 2 2 1 0 0 1 2 2 1 2 4 6 9 9 8 9 10 9 8 10 13 14 12 9 9 14 19 20 20 22 23 22 21 19 21 26 27 22 21 26
6 4 3 4 5 5 6 8 9 8 4 1 4 3 4 6 7 6 5 4 7 7 5 3 2 2 1 2 5 7 6 5 4 4 4 4 4 4 4 4 2 1 1 1 2 2 2 2 2 1 1 0 1 2 2 1 2 4 7 10 10 8 9 11 11 11 12 12 11 10 10 13 18 20 19 21 24 23 20 20 22 25 29 29 26 25 26
5 4 4 4 4 4 6 7 8 8 6 1 4 1 2 3 5 6 4 4 6 7 4 2 2 1 1 1 3 5 5 5 6 6 5 6 6 6 5 5 3 2 1 2 2 2 2 1 1 1 1 1 1 3 2 2 1 3 8 11 10 9 10 11 11 10 9 10 11 13 14 14 16 19 20 22 26 25 21 21 26 29 30 30 30 31 30
4 3 3 3 3 3 6 7 7 8 8 3 2 1 1 1 4 5 3 3 4 4 4 3 2 0 1 1 2 4 5 3 4 5 5 5 6 7 6 5 3 3 2 1 1 2 1 1 2 2 2 4 4 3 2 3 2 5 11 12 10 11 12 11 9 8 9 13 16 17 16 12 11 14 16 18 24 26 24 26 29 29 29 31 29 26 24
4 3 3 3 3 4 5 5 5 7 9 9 8 6 3 2 4 3 2 3 2 3 3 3 2 0 1 0 1 4 4 2 2 3 3 3 4 5 6 5 4 4 4 2 1 2 1 1 2 3 3 4 3 2 2 5 5 9 13 12 11 11 11 10 8 8 12 17 18 17 16 13 12 13 14 18 24 24 24 29 32 28 27 28 25 20 20
4 4 4 3 4 4 3 4 4 5 8 12 14 14 12 10 6 2 2 3 3 3 3 2 2 1 1 1 0 3 4 1 0 1 2 3 3 3 3 3 2 3 4 3 1 1 1 0 2 3 2 2 2 3 3 6 8 11 12 12 12 11 11 10 10 10 15 18 16 14 14 15 17 19 20 22 24 23 23 30 32 28 26 25 21 21 23
4 4 3 2 3 3 2 2 3 4 5 6 9 11 14 17 15 9 4 3 3 5 5 3 2 1 2 0 0 3 4 1 1 1 1 3 4 2 1 1 1 2 4 3 1 1 1 0 1 2 1 2 2 3 3 7 11 12 11 12 13 11 10 10 10 10 14 18 17 14 14 16 18 20 20 21 24 25 25 26 26 24 22 19 18 23 26
5 3 2 2 2 1 1 2 3 4 4 4 5 4 6 12 18 19 14 7 3 2 3 3 2 1 2 2 1 3 4 2 0 1 1 1 3 2 0 0 1 2 2 2 1 2 2 1 1 2 1 2 3 3 4 9 12 12 12 13 13 11 11 12 12 13 14 16 16 15 15 17 18 16 14 17 24 27 25 24 24 22 18 15 18 24 26
4 2 1 1 1 2 3 3 4 3 2 3 4 4 5 6 11 17 20 18 13 6 2 1 2 2 1 2 1 3 5 2 0 0 1 0 2 2 1 1 2 1 1 1 2 2 1 1 1 2 2 2 3 4 5 9 11 13 13 13 12 11 11 13 16 16 15 15 14 13 15 16 15 13 12 14 20 23 22 22 23 22 18 16 19 23 24
3 1 1 2 3 3 3 3 3 3 3 5 6 6 6 5 5 9 12 15 16 12 6 2 2 1 1 1 1 4 5 2 0 2 1 0 1 1 1 2 2 1 1 2 2 2 2 2 2 4 3 3 4 4 6 8 9 12 12 10 9 10 11 14 17 18 17 16 14 14 15 14 12 11 10 12 15 17 16 17 19 19 18 19 20 22 25
3 2 2 2 3 2 2 2 2 3 4 6 5 4 3 3 3 4 4 5 7 8 6 3 2 1 1 1 1 4 4 1 0 2 1 1 0 1 1 2 1 1 1 1 1 0 2 2 2 4 3 3 4 6 7 7 8 10 8 8 10 13 14 17 19 18 16 15 16 17 18 17 15 14 12 12 13 15 16 17 20 21 22 23 24 25 28
2 2 2 2 2 2 1 1 2 5 5 3 2 1 2 4 3 2 2 2 3 3 3 2 1 0 1 1 2 3 4 2 1 2 2 0 1 1 0 1 1 1 2 1 1 0 2 2 1 2 2 1 2 6 7 7 9 10 8 9 13 16 17 18 18 15 13 13 15 17 17 17 17 17 15 14 15 16 18 20 22 23 24 25 26 28 28
2 2 2 2 2 3 3 3 3 4 3 2 3 2 2 3 3 1 1 2 3 2 2 1 0 1 1 1 1 1 3 3 1 1 1 1 0 1 1 0 1 2 1 1 1 1 1 1 1 1 1 1 3 6 7 7 9 10 9 11 15 18 18 18 17 15 14 15 16 16 17 18 18 18 17 17 18 18 19 22 24 25 26 26 27 27 27
1 2 2 3 4 5 6 5 4 2 1 2 3 3 2 2 2 1 2 3 2 2 1 1 2 2 1 1 1 1 3 3 1 1 1 1 0 1 1 1 1 2 1 0 1 1 2 2 1 1 0 2 4 6 7 8 10 9 9 13 17 18 18 17 15 14 15 15 15 15 17 18 19 19 19 20 20 20 21 23 26 27 27 26 26 27 27
4 5 5 6 6 5 4 5 6 4 2 2 2 2 1 1 1 2 2 1 1 1 1 1 1 2 2 1 2 2 1 3 2 1 1 2 1 1 1 1 1 3 1 0 1 2 2 2 1 1 1 3 5 7 8 9 10 8 9 14 18 18 17 16 15 15 15 15 15 16 17 17 19 20 20 20 22 23 22 24 26 27 26 25 26 27 28
7 6 6 5 4 4 4 4 4 4 2 2 3 2 2 3 2 1 1 1 0 1 1 2 3 3 3 1 1 2 1 2 1 1 1 1 1 1 2 2 2 2 1 1 2 3 2 1 1 2 3 4 6 7 9 10 10 8 10 15 19 18 15 15 15 15 14 14 15 17 16 16 18 20 21 21 23 23 23 24 26 26 25 24 25 26 27
4 2 3 2 3 4 3 2 3 3 3 2 2 1 2 3 1 0 2 2 1 1 1 2 2 2 2 1 1 1 1 1 1 1 1 1 1 2 2 2 2 1 1 2 2 2 1 1 2 1 3 5 6 7 9 10 9 7 9 15 19 17 15 15 16 14 12 14 16 16 15 15 17 19 20 22 22 22 23 25 25 24 24 24 24 25 27
1 2 3 3 3 4 2 1 2 3 3 1 1 2 2 1 2 2 1 1 0 1 1 1 1 1 2 2 1 1 1 1 1 1 1 1 2 2 1 0 1 1 2 2 1 0 0 1 2 2 5 6 7 8 9 11 9 8 10 15 18 17 16 16 15 13 12 15 17 16 15 17 18 19 21 22 21 21 22 23 24 24 25 25 24 25 26
2 2 3 4 2 2 2 2 2 2 1 1 2 2 2 2 2 2 1 0 1 1 2 1 1 0 1 2 1 1 1 1 1 1 0 2 2 1 0 0 2 2 2 2 1 1 1 3 4 4 6 7 8 8 10 10 9 10 12 15 16 17 17 16 14 13 15 17 17 16 16 18 19 19 20 21 22 21 20 20 23 25 26 25 26 27 27
3 1 3 4 2 2 2 1 0 0 1 2 2 2 1 1 2 2 1 0 0 1 1 1 1 1 1 1 1 1 1 1 1 1 1 1 1 1 1 2 2 1 1 1 1 2 2 3 4 5 6 7 8 8 10 9 9 12 15 17 16 17 17 15 13 14 17 17 16 16 17 19 20 19 19 20 22 22 19 20 24 26 25 26 28 28 28
2 2 3 3 1 1 1 1 1 0 0 1 1 1 0 1 1 1 1 1 1 1 1 1 1 0 1 1 1 1 1 2 2 1 1 2 1 1 2 3 1 1 1 1 1 3 4 4 4 5 6 7 7 8 9 8 10 13 17 17 17 17 16 14 14 16 18 17 16 17 19 20 19 18 18 20 22 22 20 22 25 27 27 29 32 31 29
6 4 4 2 2 1 0 1 1 0 1 1 0 0 1 1 1 1 1 0 1 1 0 1 1 1 1 1 1 2 2 2 1 1 2 3 2 0 0 1 1 2 1 2 1 3 5 4 3 4 5 5 7 9 9 8 10 14 16 17 17 16 13 13 15 18 18 16 16 18 20 19 18 17 18 20 21 22 22 24 25 27 31 35 34 30 30
8 5 3 2 2 1 0 0 1 1 3 2 2 1 1 1 1 2 1 0 0 0 0 0 0 0 0 1 2 2 1 1 1 2 2 1 1 1 0 1 2 2 1 1 3 4 4 3 3 5 5 5 8 10 9 8 11 14 15 16 16 14 11 13 17 19 18 16 17 19 20 19 17 18 19 20 19 22 26 28 27 28 33 35 31 27 29
5 4 2 0 1 2 2 1 2 1 2 2 1 1 1 1 1 2 1 0 1 1 1 0 0 1 2 3 2 1 0 1 2 2 1 1 2 2 1 2 3 2 2 4 5 4 3 2 3 5 5 7 10 10 8 9 13 15 15 15 14 12 11 15 19 19 17 17 18 19 21 20 20 20 21 21 19 21 25 27 27 28 31 30 27 26 30
3 3 1 1 1 2 2 1 1 1 1 1 2 2 1 1 2 3 2 0 1 2 1 1 1 3 3 1 0 0 1 1 1 1 1 2 2 2 2 2 2 2 2 4 4 3 2 3 5 6 7 9 10 8 9 12 15 16 15 15 13 10 12 18 21 19 17 18 19 21 22 22 22 24 23 20 18 18 20 21 24 28 30 28 27 28 32
Wind_Direction
353 354 352 344 345 347 348 355 359 358 2 7 1 0 64 52 299 320 359 360 9 73 48 118 345 56 35 341 245 62 228 194 228 186 201 237 227 182 244 194 214 244 256 250 205 217 238 200 186 262 239 15 33 54 27 325 286 255 246 106 120 238 238 244 265 267 129 114 128 114 65 136 188 226 135 166 204 353 286 293 345 257 238 240 263 259 267
342 344 347 345 344 344 345 354 358 358 6 10 5 7 131 24 241 318 357 360 44 157 26 90 341 11 341 353 101 151 233 207 244 244 217 212 189 195 237 181 181 80 156 262 217 196 246 232 167 347 249 80 56 50 17 324 309 344 315 15 80 236 221 215 288 299 322 181 180 148 146 180 229 221 114 139 90 85 56 145 111 258 235 223 252 267 252
334 341 344 344 343 342 343 350 355 358 5 7 10 46 156 53 118 261 355 20 59 108 359 136 144 344 288 330 19 16 221 186 290 289 215 193 215 188 48 32 184 100 139 237 223 211 252 277 23 28 274 197 75 48 9 331 324 348 322 323 317 275 254 205 278 302 309 301 316 331 331 359 230 208 143 177 170 151 224 259 243 252 220 201 237 265 280
335 342 343 343 341 339 340 344 350 356 1 6 20 62 122 50 45 300 338 27 57 76 20 45 109 140 254 298 359 345 218 132 295 258 204 125 150 208 71 167 181 122 185 248 244 215 203 359 348 303 259 235 75 37 4 10 345 320 301 297 309 308 270 238 246 254 265 286 315 33 346 304 286 281 244 188 177 174 221 255 250 259 274 245 239 259 281
339 342 341 339 338 337 336 338 343 351 358 6 26 53 45 44 111 8 317 2 48 71 58 32 45 63 288 265 104 303 282 292 100 205 218 84 155 246 142 178 211 180 184 249 254 214 161 135 276 258 250 299 81 86 18 332 315 316 296 272 55 270 264 246 240 246 258 286 304 359 253 280 281 289 287 229 162 161 193 230 248 292 306 276 255 262 279
338 340 338 337 336 335 335 335 340 346 355 5 21 48 26 31 144 90 315 279 45 33 18 29 59 60 5 252 136 302 300 309 284 181 90 90 209 239 181 197 229 215 174 259 266 282 232 205 222 228 262 303 216 148 136 259 306 317 302 36 15 258 271 16 58 265 270 283 287 273 252 263 267 274 283 279 216 178 199 237 257 271 271 275 290 294 289
335 335 333 334 335 336 337 337 340 344 345 360 22 74 60 52 119 97 343 7 106 28 352 26 94 74 55 128 197 225 244 282 290 154 143 164 172 235 251 235 215 201 194 225 245 261 261 260 263 207 187 262 245 246 264 172 315 315 270 61 13 235 261 55 82 283 285 280 286 285 241 258 271 268 277 284 259 221 221 248 268 267 255 265 283 291 288
330 328 328 330 331 330 330 329 336 346 341 350 34 79 99 155 159 135 50 80 92 51 13 125 155 71 60 249 197 198 224 254 303 196 214 244 154 187 243 275 106 160 190 209 235 242 215 268 263 193 188 256 229 245 274 137 96 348 69 63 7 260 320 67 96 292 294 203 86 228 179 244 283 303 338 334 297 251 231 260 278 272 263 271 281 285 286
326 329 331 334 335 333 329 325 323 328 336 39 82 86 105 110 118 132 127 109 77 330 52 104 277 182 155 256 181 190 220 238 292 254 229 284 222 196 217 152 110 102 169 218 250 271 244 270 269 200 228 290 278 303 327 162 154 135 117 29 20 275 295 75 41 309 294 125 6 297 241 188 225 28 24 7 347 336 273 268 272 266 280 291 291 289 299
333 337 340 340 342 342 337 332 323 301 251 172 106 128 148 126 95 101 96 86 90 343 49 71 314 358 41 227 175 217 252 188 275 280 192 104 333 257 235 168 168 239 214 229 278 351 351 304 338 359 264 355 51 57 63 67 113 148 149 168 15 300 266 359 17 300 272 15 331 312 297 173 147 71 29 6 353 336 302 287 288 281 284 296 299 303 322
343 343 342 341 339 337 333 327 318 291 231 213 178 158 171 164 112 86 65 54 129 40 341 231 288 33 181 189 196 222 221 187 220 270 259 135 77 351 234 176 214 274 259 21 12 29 40 55 92 94 90 85 80 83 84 68 47 61 145 146 63 90 256 320 10 270 283 331 326 303 280 259 106 86 40 8 349 322 306 300 298 293 290 297 308 318 327
344 342 339 336 333 329 324 317 308 288 232 209 188 164 172 165 123 97 95 90 170 78 299 254 270 15 148 182 251 227 225 237 225 288 307 305 94 114 204 186 221 281 76 83 124 140 114 115 126 95 78 79 83 79 70 65 54 31 55 118 124 137 161 201 168 252 291 328 331 310 302 48 118 120 29 3 335 301 306 294 280 284 295 323 328 327 328
341 340 336 334 333 328 326 322 309 287 233 205 191 170 166 163 125 87 112 120 207 194 240 281 182 284 281 248 244 238 259 307 337 259 287 300 279 207 196 205 184 79 106 149 158 169 185 171 135 90 78 84 95 80 59 49 45 37 36 56 117 154 156 167 181 262 288 325 358 331 353 55 81 90 4 359 345 329 328 308 277 281 327 5 340 326 323
344 343 340 338 337 335 336 336 326 302 218 197 189 176 166 165 126 80 120 122 319 201 217 314 160 203 237 220 211 203 313 241 208 202 168 36 285 270 32 353 172 95 131 188 171 209 263 261 53 16 139 141 139 94 72 50 36 31 28 13 359 158 153 221 237 213 317 292 286 284 273 71 67 20 353 351 333 318 315 303 295 293 79 5 337 325 323
351 350 349 347 348 351 352 354 356 5 171 184 185 178 169 170 159 103 129 135 55 191 202 305 250 203 207 208 198 203 284 241 261 234 135 129 262 261 68 106 183 150 163 213 181 36 308 327 337 329 335 270 279 330 121 123 59 33 18 12 36 69 30 328 283 237 30 296 293 302 279 177 60 2 343 338 312 296 285 284 288 135 54 348 337 330 327
1 3 4 3 8 13 16 23 34 65 119 156 172 175 173 176 168 118 100 109 112 172 168 354 314 164 141 154 197 242 302 314 309 284 149 139 230 252 70 101 167 180 175 82 45 86 50 354 226 296 324 277 251 315 319 174 97 69 50 64 70 48 35 50 296 304 40 304 306 310 281 100 33 348 339 342 320 294 276 267 250 45 359 343 337 330 326
17 21 25 29 35 40 45 54 65 81 99 123 148 159 163 174 177 161 92 86 87 63 45 355 296 185 141 117 200 244 284 125 312 330 18 28 7 359 30 133 158 212 238 11 17 85 63 49 165 258 295 182 252 298 302 347 349 47 77 61 62 44 17 14 345 333 29 279 291 286 257 45 11 348 346 348 328 256 273 292 312 349 342 338 335 327 323
35 41 46 50 52 56 62 69 77 85 93 104 115 125 139 164 181 184 132 94 104 111 77 11 317 313 44 348 347 90 100 68 359 333 359 359 344 344 359 136 157 214 249 274 333 57 56 182 173 312 295 133 24 300 317 360 346 23 52 12 58 60 7 5 18 346 335 230 272 299 277 59 5 351 352 349 332 274 319 318 324 334 331 329 330 324 320
47 51 54 56 57 62 67 69 73 81 89 93 100 122 141 159 180 180 143 83 73 107 75 21 348 11 6 320 277 117 114 325 350 337 319 18 65 96 90 263 248 252 237 221 131 83 341 252 147 234 262 142 55 326 15 16 1 8 355 10 47 27 343 7 359 327 360 193 266 298 270 88 10 353 353 360 352 336 325 322 323 327 325 323 324 321 319
49 52 56 57 59 62 64 65 67 72 76 76 89 117 119 150 182 177 147 105 112 94 58 33 26 20 8 3 29 65 36 228 51 11 354 28 59 163 226 308 284 215 295 8 69 147 231 331 106 198 248 347 33 51 65 83 58 11 358 53 32 345 317 5 354 331 330 276 282 315 307 18 13 360 353 6 1 334 320 323 322 323 323 321 320 321 327
49 55 58 60 62 63 61 62 61 59 63 71 82 93 82 105 147 153 148 139 124 104 39 39 51 44 47 50 48 39 35 32 21 359 336 359 359 288 314 329 347 353 256 353 26 245 186 150 90 189 226 327 11 4 347 124 90 33 17 80 56 10 1 346 339 37 24 311 321 347 329 346 7 1 340 342 346 334 327 326 322 321 323 323 323 327 332
52 60 64 64 65 63 61 60 56 54 59 61 59 87 103 112 122 122 94 92 90 85 95 99 80 74 79 74 65 61 56 42 26 14 359 333 284 358 333 275 197 75 353 184 339 324 140 128 90 90 139 62 74 42 354 86 75 13 6 41 74 50 16 321 266 39 344 280 272 298 315 339 355 345 331 339 342 335 329 323 317 318 326 330 330 328 327
62 69 71 71 71 68 64 61 57 55 60 64 74 105 124 126 120 107 95 95 91 85 93 102 89 76 69 61 54 44 30 28 46 38 17 5 314 195 312 341 21 358 284 359 343 319 131 107 358 63 63 70 81 72 59 54 47 4 15 24 47 42 15 340 270 326 318 275 264 298 320 335 334 329 340 349 340 332 327 323 320 326 331 332 327 322 322
71 74 78 80 79 74 65 61 59 59 67 76 86 101 122 131 125 107 91 98 102 99 89 80 81 73 47 37 38 17 5 17 45 15 350 360 343 201 90 19 360 345 60 43 7 325 109 94 263 84 71 39 47 73 85 67 43 7 19 14 359 14 11 355 327 333 325 299 312 332 331 327 324 331 350 343 333 328 327 325 329 333 331 327 324 323 324
72 77 86 88 80 66 53 48 49 53 63 73 81 95 119 137 137 109 50 72 110 129 108 63 41 26 354 352 9 4 1 14 30 357 341 352 319 314 16 354 337 10 42 31 330 211 83 68 212 101 81 227 354 47 82 84 58 46 48 32 354 335 349 346 334 328 307 286 308 325 323 316 321 346 348 334 329 328 328 329 333 332 329 327 327 327 329
75 83 94 92 69 44 32 32 35 40 51 62 69 87 118 140 147 7 22 86 92 93 108 96 356 316 336 22 26 1 349 357 25 27 6 354 270 193 345 326 228 135 96 37 28 109 90 78 90 74 57 19 21 58 84 98 89 75 64 43 341 309 324 335 327 319 302 297 318 329 324 310 323 344 337 330 329 328 327 329 332 332 334 333 331 333 336
77 88 97 83 37 21 22 25 26 27 40 64 74 81 90 95 90 359 347 168 152 60 93 108 333 306 94 66 26 4 355 2 28 40 31 39 71 86 44 249 172 126 112 50 51 90 93 69 59 55 45 26 45 67 88 102 100 82 54 28 356 338 344 341 332 326 319 321 332 339 336 319 323 333 332 333 334 332 329 330 333 338 341 336 332 336 337
62 71 77 31 10 16 23 22 18 16 24 96 107 91 74 64 63 59 38 90 161 115 93 111 128 140 129 63 7 3 11 22 38 56 57 57 60 62 61 52 32 90 65 55 94 79 50 61 79 74 90 141 90 79 80 69 76 64 31 11 4 359 347 339 331 319 314 322 335 348 343 319 318 325 331 336 337 333 329 332 339 343 339 333 334 339 337
41 41 33 12 11 20 19 16 14 10 7 153 164 130 68 57 57 59 61 87 108 105 96 102 117 118 114 358 355 2 18 39 61 74 72 63 59 58 54 52 61 90 79 70 94 80 57 79 119 77 8 303 140 107 83 19 53 55 22 3 357 353 342 333 323 313 314 326 340 346 335 319 317 323 330 335 335 332 330 336 341 339 335 336 340 338 334
21 19 15 8 13 18 10 10 16 13 11 124 175 149 55 56 40 40 62 108 118 115 111 110 111 94 305 313 349 5 24 59 77 74 66 63 56 45 44 56 62 63 70 63 65 83 94 90 73 58 15 343 80 105 71 25 64 44 11 358 352 348 342 333 324 324 332 339 338 333 324 315 315 323 328 332 334 335 334 335 335 335 337 342 340 333 331
2 355 347 346 348 357 4 14 25 23 23 53 140 66 68 36 349 3 47 127 136 126 107 89 92 52 324 319 351 2 15 53 82 68 56 55 47 37 42 55 41 21 41 75 66 82 100 42 36 54 16 10 46 98 81 49 46 359 353 354 351 345 339 333 334 352 354 341 332 325 317 313 322 328 330 334 337 336 335 333 333 337 340 338 333 330 332
345 337 331 334 331 336 359 18 32 41 51 68 80 76 65 358 333 350 76 122 142 138 106 87 98 137 333 331 360 1 7 35 77 55 40 35 27 27 39 48 43 39 53 81 103 71 52 359 54 66 20 8 40 100 83 52 23 346 343 347 344 339 339 338 344 357 350 340 334 327 321 327 339 336 333 339 339 338 339 337 334 334 335 330 327 332 338
333 326 323 327 331 336 360 22 40 69 78 79 78 70 53 40 35 63 119 108 96 85 77 87 106 73 19 211 291 360 1 10 56 38 41 26 6 1 28 39 47 47 40 41 86 80 50 271 86 74 44 14 53 99 75 35 4 343 341 343 339 337 341 341 341 343 338 336 334 326 317 322 330 330 329 335 337 339 343 341 335 332 333 332 331 337 339
328 323 315 312 331 346 2 30 62 96 101 90 84 70 52 47 51 61 92 129 103 65 55 64 106 42 356 300 125 9 6 5 350 3 38 21 5 360 31 28 34 42 29 27 75 87 52 56 82 77 57 7 32 77 49 6 351 345 344 342 339 339 341 339 340 339 333 328 326 321 316 319 326 327 327 332 336 339 342 343 340 336 335 335 337 339 339
330 324 310 299 323 360 73 85 92 109 107 92 95 88 60 53 54 55 59 62 60 60 43 35 59 67 6 353 346 357 5 20 38 356 4 12 14 28 120 38 43 46 18 4 56 64 41 28 57 68 45 8 39 63 14 349 346 347 345 342 343 348 348 341 337 335 329 326 326 329 331 332 333 335 337 339 339 339 339 342 344 341 335 334 337 338 339
334 328 326 333 49 108 108 91 83 94 102 100 103 100 92 78 63 58 58 56 55 71 115 30 56 80 360 330 302 333 352 8 142 320 318 349 21 30 70 72 66 67 12 18 61 59 17 331 50 62 47 43 66 53 5 349 348 347 345 345 349 355 351 340 333 329 328 330 334 338 339 340 342 347 350 344 339 338 340 342 342 340 337 335 335 336 337
351 2 63 124 114 101 89 73 61 67 97 117 118 103 94 96 79 61 56 50 48 54 69 84 79 66 335 293 295 331 343 347 325 348 347 270 343 347 26 70 84 129 48 38 50 52 18 6 69 77 76 97 94 52 16 5 356 346 344 349 355 356 350 341 335 332 331 336 344 346 344 346 351 353 351 344 341 342 343 341 339 338 336 333 333 335 336
46 68 100 125 109 76 46 33 53 93 118 126 120 94 57 44 55 51 36 26 33 41 49 67 72 17 311 257 310 345 353 343 296 4 16 168 281 334 41 79 87 144 70 18 312 41 42 34 64 80 93 123 100 51 26 14 359 347 349 2 3 357 352 345 341 340 340 344 347 346 347 350 351 350 351 350 347 346 344 340 337 336 334 333 334 334 333
64 80 79 83 84 88 111 85 91 114 128 125 110 78 21 16 34 37 357 354 20 22 23 46 73 332 341 340 335 3 19 11 322 2 26 75 345 351 10 110 78 70 71 47 280 118 65 53 68 87 121 159 55 33 25 12 356 351 2 16 8 358 353 347 343 344 345 341 338 342 351 357 351 344 344 345 343 342 342 340 338 336 335 334 335 334 333
82 82 58 62 83 87 88 95 116 133 129 54 31 56 38 22 31 36 356 22 31 2 351 30 39 270 9 6 304 337 23 19 344 353 7 341 90 45 41 83 84 74 67 30 341 66 90 93 83 81 100 23 17 20 19 8 355 353 7 16 7 357 350 346 344 344 342 338 339 348 360 2 353 342 337 337 337 337 337 337 338 337 336 334 334 334 332
85 62 61 103 117 102 84 75 75 104 115 46 37 45 39 15 13 32 45 44 25 321 306 41 14 335 12 38 273 292 10 22 47 126 51 330 314 79 47 347 61 79 84 325 6 73 81 72 47 12 39 30 17 15 14 5 352 350 6 11 3 354 348 347 346 344 342 346 352 357 359 356 350 341 336 335 335 332 331 334 337 336 335 334 334 332 331
98 98 104 114 115 103 78 51 34 30 47 57 40 33 15 357 360 14 31 50 6 296 302 47 360 304 298 311 270 248 336 6 11 105 67 343 338 87 86 331 33 66 77 279 13 60 66 61 18 325 350 16 16 16 12 358 343 346 6 9 1 352 348 348 346 343 349 1 5 358 353 351 346 339 334 334 333 329 329 334 336 334 333 334 332 331 331
108 105 108 108 83 49 36 26 22 31 48 44 36 29 1 360 22 21 335 315 322 331 322 329 328 316 308 311 256 238 270 338 354 84 63 348 347 54 55 30 31 50 56 26 48 58 70 110 238 320 357 12 15 15 6 348 338 348 11 7 358 350 347 346 343 344 357 10 5 352 347 347 342 336 332 332 331 329 330 335 336 333 332 333 332 331 332
126 87 70 76 35 17 17 3 8 41 53 37 46 77 11 349 352 309 303 313 352 3 332 337 350 339 321 342 23 323 284 306 53 78 26 348 8 48 57 42 4 349 16 34 38 51 110 195 231 312 9 10 8 7 356 343 342 0 10 360 354 351 347 344 344 350 2 5 356 348 345 343 339 335 332 331 331 331 332 335 336 334 332 333 332 331 333
186 354 34 49 13 360 18 9 360 36 57 42 181 156 154 282 270 242 255 276 312 338 341 15 55 290 275 289 8 56 284 325 29 28 338 14 36 40 54 50 359 26 61 48 8 22 114 294 309 357 14 3 358 358 348 340 352 14 6 353 352 352 346 343 349 359 3 357 350 346 344 343 341 337 333 331 331 332 332 334 335 335 334 333 333 333 334
90 55 73 78 26 351 57 70 16 21 99 195 205 177 179 222 241 234 231 228 20 334 321 330 109 164 290 305 13 61 359 7 36 18 21 66 54 7 254 106 48 43 49 23 332 255 252 315 336 7 9 355 353 352 341 341 4 19 4 350 348 348 343 345 355 2 358 352 349 346 343 342 341 338 333 330 330 331 332 333 334 335 335 335 334 334 334
84 53 76 86 52 2 45 85 36 296 181 197 209 199 205 247 266 266 259 226 252 312 307 287 187 209 265 296 9 15 352 40 57 16 11 74 79 318 359 64 64 65 77 353 290 264 282 322 352 9 360 350 351 346 339 349 15 13 356 347 345 343 342 349 0 360 354 350 348 345 343 341 339 336 333 330 328 329 332 335 336 336 336 335 334 335 336
88 41 62 91 125 6 55 107 142 90 78 211 237 250 270 292 302 308 275 214 214 333 345 6 96 136 270 299 30 3 346 35 59 24 4 65 63 2 9 25 360 273 202 183 244 300 327 347 2 358 347 345 346 342 343 1 12 1 350 346 343 340 344 356 1 355 350 350 348 344 342 340 338 336 335 332 329 328 332 337 337 336 337 338 338 339 340
73 73 70 93 133 142 114 104 105 68 308 306 320 22 37 6 293 280 270 281 345 347 247 198 135 85 330 343 54 42 6 15 49 28 16 36 61 98 30 3 317 295 239 189 243 316 340 360 6 346 338 343 345 343 349 5 4 353 348 345 340 341 352 2 357 350 349 349 346 343 341 340 338 337 337 335 330 327 330 336 339 340 342 343 342 340 341
54 67 69 62 77 97 203 90 75 318 302 321 351 8 11 337 290 276 270 104 78 63 90 136 120 83 15 37 53 47 7 339 86 66 35 37 135 143 36 277 240 229 244 287 308 330 350 11 358 336 332 340 345 345 352 3 357 349 346 343 340 347 2 3 353 349 348 345 342 341 340 340 340 338 335 332 327 326 331 338 343 344 344 343 341 339 339
46 67 74 359 90 129 160 139 111 186 258 272 270 262 267 270 267 268 261 159 84 56 53 63 90 55 49 48 48 40 359 58 71 63 45 213 182 150 162 243 239 242 315 321 325 341 2 3 344 337 338 341 342 345 355 359 351 345 343 342 344 353 3 357 352 350 345 338 339 341 340 339 338 337 334 331 329 330 334 339 343 343 342 340 338 339 341
51 72 75 333 63 110 118 100 98 144 203 218 222 232 238 259 274 276 265 172 87 76 103 168 96 69 65 67 74 63 59 54 43 31 209 204 191 174 191 244 291 325 327 315 323 345 2 345 340 339 336 332 334 344 355 353 346 343 343 343 347 356 358 353 353 350 341 334 336 340 338 336 338 339 338 336 336 336 334 332 334 338 340 340 340 343 345
Height
859 858 858 857 856 855 854 853 851 850 848 847 846 844 844 846 846 845 844 844 844 843 848 862 865 858 865 875 874 876 876 873 874 876 875 873 872 871 869 868 866 865 866 866 865 862 858 858 857 855 858 863 872 886 894 892 885 871 860 861 869 866 857 856 848 837 847 865 872 874 875 870 862 860 865 864 861 860 857 859 863 863 858 856 859 850 822
860 859 858 857 855 854 854 852 851 850 849 847 846 845 847 850 849 847 845 843 842 844 849 854 853 858 870 872 869 875 878 875 873 872 870 872 871 867 866 868 867 869 873 869 865 863 857 853 858 861 860 867 886 895 894 890 881 871 868 866 868 861 851 853 849 837 840 848 849 856 864 862 854 854 868 874 871 875 875 875 876 865 850 845 845 832 811
859 858 857 856 855 854 853 852 851 850 849 848 847 846 849 850 849 849 847 844 845 850 856 856 853 859 864 862 865 870 872 876 877 873 872 875 874 867 867 872 872 872 875 871 868 869 861 856 862 868 865 871 889 897 896 894 885 880 884 882 874 863 854 854 849 843 843 838 834 840 846 851 853 857 870 877 875 875 869 865 868 861 851 850 844 825 808
859 858 857 856 855 854 853 852 851 850 849 849 848 847 849 848 848 849 848 847 850 859 867 862 855 859 860 858 866 867 863 871 880 877 873 875 877 873 871 874 873 871 871 866 864 869 869 867 868 867 862 867 884 896 895 893 889 885 888 887 877 868 865 860 850 847 845 836 839 852 854 851 851 853 860 869 876 878 869 863 861 854 853 850 838 828 822
858 857 856 855 854 853 852 852 851 850 850 849 848 849 851 850 851 854 852 850 853 859 866 864 859 863 861 857 865 866 860 866 873 875 875 876 877 874 873 874 869 864 866 861 860 867 872 872 871 868 866 870 883 895 895 891 890 887 885 884 878 867 862 863 860 856 851 845 849 861 864 858 853 853 856 861 872 879 874 866 856 850 855 846 830 831 833
857 856 855 854 854 853 852 851 851 851 850 849 849 851 853 852 856 863 860 855 855 855 861 866 865 865 866 866 868 864 860 860 861 867 875 877 877 871 866 869 867 864 865 860 857 864 866 865 866 867 870 872 874 880 887 889 889 887 883 882 878 865 860 871 876 866 859 859 857 858 863 863 860 861 860 859 867 876 874 866 856 855 860 847 831 833 835
856 856 855 854 853 852 852 851 851 851 850 850 849 850 855 856 858 865 865 860 862 866 870 872 867 864 866 867 866 863 858 857 860 868 871 869 874 871 859 858 865 868 868 864 859 859 857 856 861 864 868 871 867 864 870 881 888 885 878 881 883 870 862 878 887 873 861 861 862 863 866 866 864 864 862 859 864 870 872 867 860 860 860 849 840 840 837
856 855 854 854 853 852 852 851 851 850 849 850 850 850 854 854 853 860 862 862 869 876 876 870 863 865 868 862 862 866 860 856 862 870 865 858 865 873 861 855 866 872 872 867 860 859 859 857 861 866 867 867 867 862 861 871 883 883 878 883 885 872 867 881 886 868 854 861 870 868 866 867 866 861 858 860 861 865 871 871 865 864 860 851 848 846 836
855 855 854 853 852 851 851 850 850 850 849 849 851 852 853 852 852 855 854 858 869 873 872 871 862 860 862 859 861 865 861 860 864 865 867 864 862 866 863 859 867 875 874 870 863 863 868 866 866 871 869 866 868 867 867 871 875 878 882 885 882 874 873 880 880 862 849 858 865 861 862 870 870 863 861 862 859 860 865 865 860 859 856 851 849 845 835
855 854 853 852 851 850 850 849 849 850 850 849 850 851 853 853 853 854 851 855 867 870 868 870 863 856 860 863 863 863 863 869 869 859 864 872 869 869 869 865 866 868 866 867 868 870 874 874 874 876 875 873 875 874 875 876 873 874 882 886 888 884 874 872 877 864 848 852 859 855 855 858 860 865 868 864 860 859 858 857 854 852 851 851 848 841 836
854 853 852 851 851 849 849 849 848 849 849 849 850 850 852 852 851 854 853 851 865 876 869 861 859 858 863 867 866 866 866 870 869 859 857 867 875 878 876 870 866 864 865 872 877 878 879 878 878 879 877 877 880 879 879 880 880 880 880 882 892 892 878 875 883 870 851 855 859 848 841 842 850 863 867 864 863 862 859 857 853 847 845 846 845 842 841
853 853 851 850 850 849 849 848 847 848 848 848 850 849 851 852 850 853 854 849 862 877 868 859 863 864 866 869 868 865 865 867 871 869 863 865 874 879 878 872 866 866 873 879 881 880 879 878 878 878 877 877 878 879 878 880 885 887 883 880 885 886 880 883 890 879 864 865 859 841 836 846 858 863 863 862 862 860 858 857 851 845 847 848 849 848 845
853 852 851 850 849 848 848 848 846 848 847 848 850 850 850 852 851 852 855 851 856 865 861 862 875 877 872 872 869 867 872 875 877 878 874 870 872 874 876 874 871 873 879 881 880 878 874 874 876 875 877 880 878 878 882 884 884 886 886 884 881 879 881 885 888 882 872 868 864 851 846 855 862 861 861 862 861 859 859 856 847 845 849 852 852 849 846
852 852 850 849 849 847 847 847 846 847 847 847 849 850 850 852 852 852 855 852 854 867 867 862 867 870 868 869 868 868 873 876 875 876 877 877 875 873 876 878 877 878 881 879 877 874 868 864 863 861 866 870 865 866 880 889 887 886 888 888 884 881 880 878 878 880 879 876 872 862 853 858 866 867 867 869 867 865 866 863 852 847 850 854 852 848 846
852 852 850 849 849 847 847 847 846 846 847 847 849 850 850 852 852 852 854 853 854 866 869 860 858 861 862 866 870 866 863 865 868 870 877 882 879 874 877 881 878 879 881 876 872 871 866 859 852 845 845 848 848 855 870 881 886 889 891 891 888 884 881 875 874 880 884 881 875 865 857 860 869 873 872 871 869 866 868 868 858 848 851 853 850 848 846
852 851 850 849 848 848 847 847 846 846 847 847 849 850 850 852 853 852 854 855 853 856 863 867 867 867 864 867 873 868 861 861 863 863 865 871 874 876 878 880 878 879 879 875 873 872 864 858 857 852 847 850 853 856 861 865 874 885 890 889 886 885 886 882 877 881 886 883 877 871 864 865 873 876 870 868 868 867 868 866 853 846 851 853 851 851 848
852 851 851 850 849 848 847 847 847 847 848 848 849 850 851 852 853 853 853 855 854 858 869 876 873 867 864 864 868 869 867 867 866 861 858 862 872 877 877 878 879 879 876 873 872 869 861 861 865 858 855 866 867 858 858 862 864 872 881 885 885 887 890 886 878 881 891 891 881 871 865 867 874 874 869 867 867 867 868 863 849 845 852 855 854 854 851
853 852 851 850 850 849 848 848 849 848 849 850 850 850 851 852 853 853 854 855 854 860 873 879 873 867 866 865 866 869 870 869 867 864 862 866 873 874 873 876 876 873 875 873 868 864 859 863 869 861 856 872 877 863 861 866 866 872 883 889 891 893 896 898 894 890 895 898 887 871 865 871 876 873 869 866 863 864 870 868 859 855 857 857 857 857 852
853 853 852 851 851 850 850 850 850 850 850 851 851 851 852 852 853 853 854 855 855 860 873 879 876 874 875 874 872 872 873 871 868 865 860 861 870 875 876 876 873 872 875 872 868 869 862 862 879 880 865 868 875 868 866 873 878 882 886 888 892 896 898 902 902 896 896 901 894 877 868 872 877 875 871 869 871 875 876 871 866 865 863 860 858 856 851
854 853 853 853 852 852 852 851 851 851 851 851 851 852 852 852 853 853 854 856 858 865 876 880 878 878 879 877 874 872 872 871 870 867 860 861 872 875 867 864 867 871 871 865 866 874 866 860 879 886 871 866 872 871 873 882 888 889 889 890 897 900 896 893 894 896 899 900 894 884 876 875 877 877 876 877 883 886 881 872 870 870 867 863 858 854 852
855 855 855 854 854 853 853 853 853 852 852 852 852 852 852 853 854 854 854 855 856 862 874 879 880 880 880 879 879 878 876 874 873 873 869 870 876 872 860 861 867 869 868 864 864 871 871 870 878 882 875 873 874 875 878 883 888 894 895 895 901 905 903 900 898 900 902 897 888 883 881 878 880 885 886 886 887 887 883 878 874 869 865 863 859 855 854
856 856 856 855 855 855 854 854 854 853 853 853 852 853 853 853 855 855 855 856 858 866 875 880 881 881 880 880 881 880 880 880 879 879 877 875 876 874 869 870 871 870 873 871 866 867 872 876 877 875 874 874 877 886 891 886 888 898 898 896 902 907 907 907 903 902 904 900 890 885 883 883 886 889 889 888 888 888 886 883 878 872 868 866 863 859 856
857 857 857 856 856 856 855 855 855 854 854 854 853 854 854 854 855 855 855 857 864 873 880 880 880 881 882 882 882 881 882 881 880 881 880 877 875 874 874 874 873 874 877 875 870 869 871 875 876 874 875 878 880 888 894 893 897 907 905 901 906 908 907 906 904 903 903 895 887 887 887 887 889 889 889 890 890 888 885 882 878 875 871 869 867 862 857
858 858 858 857 857 857 857 856 856 855 855 854 854 854 854 854 855 856 856 858 863 870 876 880 882 882 882 883 882 882 882 881 881 881 882 880 875 871 873 877 877 877 877 877 878 877 875 878 882 878 877 884 886 885 892 902 909 911 909 909 910 907 906 907 906 908 906 893 885 889 891 890 890 889 889 891 890 887 885 881 878 876 874 871 868 863 858
859 859 859 858 858 858 857 857 857 856 856 856 855 855 855 856 856 856 856 857 858 860 865 874 882 884 884 884 883 882 882 882 882 881 880 881 880 875 875 879 880 878 878 879 880 878 875 877 881 878 877 887 892 890 894 905 910 911 914 920 918 911 910 910 909 911 908 897 890 893 893 891 891 891 890 890 887 885 883 881 879 878 874 871 867 863 859
860 860 860 860 859 859 859 858 858 857 856 856 856 856 856 856 856 856 856 856 858 858 861 871 881 884 883 883 883 883 883 881 881 882 881 880 881 880 879 881 880 879 881 880 879 879 879 878 880 881 883 888 893 896 899 905 910 914 918 922 921 916 914 915 914 911 906 898 895 894 892 889 890 892 893 891 886 884 882 880 879 877 874 871 867 863 860
861 861 861 861 860 860 859 859 858 857 857 857 856 857 857 856 856 856 856 856 856 855 858 870 882 884 884 885 884 883 883 882 881 882 881 880 881 881 880 881 880 879 880 880 879 880 880 879 883 890 895 896 898 903 908 909 911 916 920 921 921 920 919 917 916 914 910 904 901 900 898 895 892 891 891 888 885 884 881 878 877 875 872 870 865 861 858
862 862 861 861 861 860 860 859 859 858 857 857 857 857 857 857 857 856 856 857 855 854 861 873 882 882 881 883 884 883 882 883 882 881 881 881 881 881 881 881 880 880 880 879 879 880 881 884 892 898 900 899 900 906 913 914 914 918 923 923 922 923 923 922 921 919 915 909 907 909 909 904 896 891 890 888 887 885 881 878 877 875 873 870 866 862 858
863 862 862 862 861 861 860 860 859 858 858 857 858 858 857 858 858 857 857 857 856 859 868 876 879 880 881 883 885 885 883 882 882 882 882 882 881 882 882 881 880 881 882 880 880 884 889 894 898 900 898 897 899 906 914 920 921 923 926 927 925 925 925 923 921 919 916 912 911 912 911 906 898 893 891 891 889 886 882 880 878 876 873 870 867 865 861
863 863 862 862 861 861 861 860 859 859 858 857 857 858 858 858 858 857 858 858 857 859 863 867 871 879 885 885 885 885 884 883 883 883 882 883 883 882 882 882 882 882 882 881 883 888 894 897 898 899 899 898 900 908 919 927 928 926 925 926 926 925 924 922 920 918 917 914 912 911 910 906 901 896 895 894 891 888 884 881 879 877 874 872 869 866 863
863 862 862 862 862 861 861 860 860 859 858 857 858 858 857 857 858 858 858 858 857 858 861 866 875 883 886 885 886 885 884 884 884 884 884 884 884 883 883 883 883 883 882 884 887 891 895 898 897 899 901 899 902 913 925 931 932 928 925 925 926 925 923 921 919 918 918 915 910 907 905 903 901 899 898 895 893 891 887 884 881 879 876 874 872 868 864
863 863 862 862 862 861 861 861 861 860 859 858 858 859 859 859 858 858 858 858 858 858 859 863 872 878 880 883 886 886 885 884 884 884 884 884 884 884 884 884 884 885 885 887 891 893 897 900 900 902 904 904 908 918 927 930 932 930 927 925 925 924 923 920 919 918 918 916 911 905 900 898 899 899 898 895 894 892 889 885 882 879 877 873 870 868 866
862 862 862 861 861 861 861 861 861 861 861 861 860 861 861 860 858 858 858 858 859 859 859 861 868 874 878 882 885 885 885 884 884 884 884 885 885 885 885 886 887 886 887 890 893 896 900 902 901 903 907 909 912 919 927 930 932 930 927 926 926 924 922 921 920 919 918 916 915 911 904 899 899 897 896 895 892 890 888 884 880 877 874 871 867 864 863
862 862 861 861 861 861 861 861 861 861 861 862 861 862 862 861 860 859 858 859 859 860 862 867 870 874 877 880 882 884 885 884 884 884 884 885 886 886 886 887 887 887 889 893 896 899 901 902 902 906 912 915 918 924 929 931 931 929 928 927 925 922 921 921 920 920 919 916 914 912 908 904 901 898 895 893 891 888 887 884 880 875 872 869 866 863 859
861 860 860 860 861 860 861 861 861 861 862 862 863 864 863 862 862 860 859 860 859 860 868 877 879 879 880 878 878 883 886 886 886 888 887 886 887 888 887 885 886 889 893 896 898 901 904 905 905 911 918 923 927 932 934 933 931 930 929 926 924 922 922 922 919 919 918 915 912 910 907 904 901 899 896 894 891 887 884 882 880 877 873 869 866 863 859
861 860 860 861 860 860 861 861 861 862 862 862 863 864 863 863 864 863 862 862 861 864 873 884 889 891 890 885 883 886 887 886 887 890 890 887 887 889 888 884 887 895 899 898 900 905 907 907 909 916 924 929 933 936 936 933 931 931 928 926 925 925 924 923 920 917 915 913 911 909 906 903 901 900 898 896 894 890 886 883 880 877 874 870 866 863 860
860 860 860 860 860 861 861 862 862 862 862 863 864 864 864 864 864 863 864 865 867 870 876 883 891 899 901 896 892 890 887 886 888 889 888 888 888 890 889 887 889 896 899 899 903 908 908 908 914 922 928 932 934 935 934 933 932 932 929 927 927 927 926 924 920 915 911 908 906 905 903 902 901 901 900 898 895 892 890 887 883 879 876 872 868 864 861
860 860 860 860 860 861 861 862 863 863 863 864 864 863 864 865 864 865 870 872 873 879 884 888 895 904 904 899 895 891 889 891 891 888 888 891 890 887 889 891 893 897 901 905 909 911 910 913 921 928 931 932 932 932 933 933 932 931 930 929 929 928 926 923 920 915 911 907 904 901 899 897 896 896 896 896 895 893 891 888 885 882 879 874 870 866 863
859 860 860 860 861 862 862 863 863 863 863 864 864 864 867 868 865 869 878 881 882 887 892 894 900 906 904 898 896 895 895 895 892 889 890 891 887 885 888 892 894 897 901 905 908 909 910 916 925 930 931 932 932 931 932 933 932 930 930 930 929 928 927 924 922 919 916 913 911 908 905 904 901 896 894 893 893 892 890 888 885 882 879 875 871 867 863
860 861 861 861 862 863 863 863 863 863 864 864 864 865 869 872 875 880 884 884 887 895 899 900 903 908 906 903 901 899 897 896 894 893 893 893 892 891 891 891 893 896 898 902 907 909 909 915 926 931 930 930 932 932 932 932 931 930 930 930 929 929 927 925 923 921 919 916 914 912 910 910 908 903 899 897 894 891 889 887 884 882 879 876 872 869 864
860 860 860 861 862 863 863 864 864 864 865 864 866 872 877 880 887 894 891 885 890 901 907 906 904 905 906 906 904 901 899 900 901 901 897 895 895 894 889 891 897 897 896 903 912 912 908 913 924 930 930 929 930 931 931 931 931 929 929 930 929 928 927 925 923 921 919 916 915 913 912 911 909 906 903 900 897 893 890 888 884 882 879 875 872 869 865
860 860 861 862 863 863 864 864 864 865 867 865 869 882 891 891 891 895 895 894 900 908 909 907 906 905 906 907 905 903 902 902 903 901 896 894 895 895 892 893 893 890 894 909 916 909 907 917 927 928 927 928 930 931 930 930 930 929 929 930 929 928 926 925 922 920 918 916 915 914 912 910 909 906 903 901 898 895 892 889 885 882 879 876 873 869 864
861 862 861 862 863 863 864 866 869 873 878 879 878 883 891 896 899 902 903 906 912 913 910 909 910 908 905 905 906 905 903 903 903 902 899 897 899 898 893 891 891 894 904 915 913 904 910 925 931 928 926 928 929 931 931 930 929 929 929 929 929 928 926 924 922 920 918 917 916 914 912 910 908 906 903 900 898 894 891 889 887 883 880 877 873 869 865
862 863 861 863 866 865 865 869 874 877 883 892 894 891 890 895 901 904 903 905 911 914 914 915 916 911 907 908 908 905 904 904 903 901 901 902 903 897 892 894 902 909 912 913 911 914 925 932 930 926 928 929 929 931 932 930 928 929 929 929 929 927 925 923 921 919 918 917 915 914 912 910 908 905 902 899 897 893 890 888 885 883 880 877 873 870 866
862 863 861 863 870 872 870 875 884 887 891 900 905 903 899 899 901 904 907 912 916 917 917 919 921 918 912 910 908 907 908 906 900 901 907 907 900 897 901 908 915 918 916 914 915 920 927 928 925 925 929 931 931 931 931 929 928 929 929 928 927 926 924 922 920 919 918 917 915 913 911 908 906 904 901 898 896 893 890 887 884 881 878 875 872 869 865
864 868 866 864 874 884 884 885 891 897 902 908 909 908 908 908 909 912 917 920 920 918 918 921 923 919 914 910 907 908 911 907 901 908 916 907 896 902 915 916 914 916 917 915 914 918 923 926 927 928 930 932 932 932 931 929 928 929 928 927 926 925 923 921 919 919 918 917 914 912 911 909 906 904 901 898 895 893 890 887 884 881 877 874 871 867 863
866 873 870 868 879 892 895 896 902 908 911 914 915 915 916 918 918 919 920 921 921 921 921 923 922 918 916 914 909 908 912 910 905 910 916 909 903 911 918 912 912 922 923 915 915 925 930 929 928 929 932 933 933 932 930 929 928 929 928 927 926 924 922 920 920 919 918 916 914 912 910 908 906 904 901 898 894 891 889 887 884 880 877 874 870 866 862
870 874 873 878 890 898 900 905 913 918 918 919 921 923 923 922 919 918 919 922 923 921 919 920 918 913 914 915 911 908 911 910 905 910 918 915 908 910 910 906 914 931 935 927 925 929 930 928 931 934 934 934 933 931 930 929 929 929 928 926 925 924 921 920 920 919 917 916 914 912 910 909 906 903 901 898 894 891 889 886 883 879 876 873 869 865 861
876 879 885 895 905 910 912 915 915 913 915 919 922 923 922 919 917 918 920 922 922 921 921 922 917 909 909 913 912 909 912 913 911 914 919 917 916 921 922 915 913 922 931 934 934 931 928 931 935 935 934 934 933 931 930 929 929 929 928 926 925 923 922 921 921 919 916 915 914 912 910 908 905 902 900 898 894 890 888 885 882 879 874 871 867 863 860
882 888 899 906 905 907 915 917 910 905 910 916 918 919 919 918 917 919 920 921 922 921 920 919 916 913 912 912 907 905 914 923 923 918 916 920 930 937 931 920 916 922 929 933 933 930 930 934 936 933 933 934 932 930 930 930 929 928 928 926 925 923 922 921 920 918 916 915 914 911 909 907 905 902 900 897 894 890 887 884 881 878 873 870 867 864 860
890 898 910 914 909 906 911 910 903 902 908 912 914 918 920 918 917 918 920 921 921 917 912 914 917 913 906 903 902 906 916 927 931 927 925 932 941 938 924 916 923 930 931 930 931 932 933 935 936 933 933 933 931 930 931 931 929 928 928 926 924 924 923 921 920 918 915 914 913 911 909 906 904 902 899 896 893 890 886 881 879 878 874 870 867 864 860
897 902 912 918 918 916 915 912 908 910 914 916 918 921 921 918 918 920 921 920 916 910 911 918 917 907 900 906 917 921 921 923 925 926 928 933 938 935 927 924 929 932 931 931 933 934 934 935 935 934 933 932 931 930 930 929 928 928 927 925 924 923 922 921 919 917 915 913 911 909 908 905 903 900 898 895 891 889 885 881 878 876 873 869 866 863 859